Regional Weather Roundup
Issued by NWS Green Bay, WI

Home | Current Version | Previous Version | Text Only | Print | Product List | Glossary On
Versions: 1 2 3 4 5 6 7 8 9 10 11 12 13 14 15 16 17 18 19 20 21 22 23 24 25 26 27 28 29 30 31 32 33 34 35 36 37 38 39 40 41 42 43 44 45 46 47 48 49 50
000
ASUS43 KGRB 011010
RWRGRB

NORTH-CENTRAL AND NORTHEAST WISCONSIN REGIONAL WEATHER ROUNDUP
NATIONAL WEATHER SERVICE GREEN BAY WI
500 AM CDT WED APR 01 2015

WIZ005-009-010>012-018-019-011100-
NORTH CENTRAL WISCONSIN

CITY           SKY/WX    TMP DP  RH WIND       PRES   REMARKS
IRONWOOD       MOCLDY    28  28 100 CALM      29.92R
MANITOWISH WTR CLOUDY    27  27 100 CALM      29.94S
ARBOR VITAE    MOCLDY    30  28  92 CALM      29.95R
EAGLE RIVER    PTCLDY    26  25  94 CALM      29.94R
LAND O LAKES   MOCLDY    27  27  98 CALM      29.96R
RHINELANDER    PTCLDY    28  24  85 CALM      29.96R
PHILLIPS       CLOUDY    32  30  92 CALM      29.93R
ANTIGO         PTCLDY    28  27  96 CALM      29.97R
TOMAHAWK       PTCLDY    26  24  95 CALM      29.95S
MERRILL        MOCLDY    26  25  99 CALM      29.97R
$$

WIZ013-073-011100-
NORTHEAST WISCONSIN

CITY           SKY/WX    TMP DP  RH WIND       PRES   REMARKS
IRON MOUNTAIN  CLOUDY    28  26  92 CALM      29.97R
MARINETTE      PTCLDY    27  21  80 NW3       30.00R
OCONTO         CLEAR     24  23  99 CALM      30.01R
$$

WIZ017-030-035>037-045-011100-
CENTRAL WISCONSIN

CITY           SKY/WX    TMP DP  RH WIND       PRES   REMARKS
MEDFORD        MOCLDY    36  30  79 E5        29.94S
WAUSAU         PTCLDY    30  27  88 CALM      29.96R
MOSINEE        PTCLDY    34  32  93 CALM      29.98R
MARSHFIELD     MOCLDY    35  30  82 SE6       29.95R
WISC RAPIDS    PTCLDY    32  27  81 SE3       29.98R
STEVENS POINT  PTCLDY    27  25  92 CALM      29.98R
WAUPACA        CLEAR     30  28  90 CALM      29.99R
SHAWANO        CLEAR     29  28  93 CALM      30.00R
CLINTONVILLE   CLEAR     30  28  93 CALM      29.99R
$$

WIZ038-039-048-051-011100-
FOX VALLEY

CITY           SKY/WX    TMP DP  RH WIND       PRES   REMARKS
NWS GREEN BAY  CLEAR     30  28  92 CALM      30.00R
APPLETON       CLEAR     32  30  93 CALM      30.00R
OSHKOSH        CLEAR     30  28  92 CALM      29.98R
FOND DU LAC    CLEAR     30  27  88 CALM      29.98S
$$

WIZ022-050-052-011100-
EAST CENTRAL WISCONSIN

CITY           SKY/WX    TMP DP  RH WIND       PRES   REMARKS
STURGEON BAY   CLEAR     28  25  86 CALM      30.02R
MANITOWOC      CLEAR     28  26  92 CALM      30.01R
SHEBOYGAN      CLEAR     25  25 100 W5        30.00R
$$

LMZ563-521-522-541>543-011100-
LAKESHORE

STATION/POSITION TIME  TEMP    WIND        PRES    VSBY  WAVE
                       AIR SEA DIR/SP/G                  HT/PER
                 (UTC) (F)     (DEG/KT/KT) (MB)    (MI)  (FT/S)
SHEBOYGAN LKSHOR 1000   38     330/  4/  5 1016.7R
KEWAUNEE LKSHORE 1000   29                   N/A
NORTHPORT PIER   1000   32      60/  4/  5 1015.9S
SISTER BAY LKSHO 1000   30        CALM       N/A
CHAMBERS ISLAND  1000   29      50/  1/  4 1016.3R
MENOMINEE LKSHOR 1000   30                   N/A
$$


USA.gov is the U.S. government's official web portal to all federal, state and local government web resources and services.